This is the latest recevied weather packets stored in our database for station/object SQ5SUI-3. If no packets are shown the sender has not sent any weather packets the latest 10 day(s).
| Time | Temp. | Humidity | Pressure | Rain* | Wind** | Luminosity | Snow |
|---|---|---|---|---|---|---|---|
| 1778024010 | 13.33° C | 51% | 1020.9 hPa | 0 mm | - | - | - |
| 1778022209 | 13.89° C | 51% | 1021.3 hPa | 0 mm | - | - | - |
| 1778020410 | 14.44° C | 48% | 1021.3 hPa | 0 mm | - | - | - |
| 1778018610 | 15° C | 46% | 1021.3 hPa | 0 mm | - | - | - |
| 1778016809 | 15° C | 46% | 1021.5 hPa | 0 mm | - | - | - |
| 1778015009 | 16.11° C | 44% | 1021.4 hPa | 0 mm | - | - | - |
| 1778013209 | 17.22° C | 39% | 1021.5 hPa | 0 mm | - | - | - |
| 1778011408 | 17.78° C | 39% | 1021.7 hPa | 0 mm | - | - | - |
| 1778009609 | 17.78° C | 39% | 1022.6 hPa | 0 mm | - | - | - |
| 1778007809 | 20° C | 34% | 1022.7 hPa | 0 mm | - | - | - |
| 1778006010 | 20.56° C | 31% | 1023.1 hPa | 0 mm | - | - | - |
| 1778004208 | 22.22° C | 22% | 1023.5 hPa | 0 mm | - | - | - |
| 1778002409 | 23.89° C | 21% | 1023.1 hPa | 0 mm | - | - | - |
| 1778000608 | 25.56° C | 19% | 1023.1 hPa | 0 mm | - | - | - |
| 1777998808 | 26.11° C | 10% | 1022.7 hPa | 0 mm | - | - | - |
| 1777996859 | 25.56° C | 10% | 1023 hPa | 0 mm | - | - | - |
| 1777995059 | 25.56° C | 10% | 1022.9 hPa | 0 mm | - | - | - |
| 1777993259 | 26.11° C | 11% | 1022.6 hPa | 0 mm | - | - | - |
| 1777991458 | 28.89° C | 12% | 1022.1 hPa | 0 mm | - | - | - |
| 1777989658 | 27.22° C | 10% | 1021.2 hPa | 0 mm | - | - | - |
| 1777987859 | 27.78° C | 10% | 1020.6 hPa | 0 mm | - | - | - |
| 1777986059 | 27.78° C | 10% | 1020.1 hPa | 0 mm | - | - | - |
| 1777984259 | 28.89° C | 11% | 1019.6 hPa | 0 mm | - | - | - |
| 1777982458 | 28.33° C | 14% | 1019.3 hPa | 0 mm | - | - | - |
| 1777980659 | 27.78° C | 10% | 1018.7 hPa | 0 mm | - | - | - |
* Rain latest hour (hover to see other rain measurements)
** Current wind speed in m/s (hover to see current wind gust speed)